User: anonymous   Login
Location: Myra
(43.4160°N, 88.0960°W)
Time: 11:27:47
(UTC-05:00)
Language:

SL-8 R/B - Orbit

View from above orbital plane
View from above orbital plane
View from above satellite
View from above satellite

Ground track
Ground track

The orbit data is extracted from the following two-line orbital elements,

1 33066U 08031G   17262.88505753 -.00000073 +00000-0 +20608-4 0  9990
2 33066 048.4449 027.4426 0007641 160.0074 355.1735 14.69565222496633
Epoch (UTC): 19 September 2017 21:14:28
Eccentricity: 0.0007641
inclination: 48.4449°
perigee height: 657 km
apogee height: 668 km
right ascension of ascending node: 27.4426°
argument of perigee: 160.0074°
revolutions per day: 14.69565222
mean anomaly at epoch: 355.1735°
orbit number at epoch: 49663

The dashed part of the orbit path shows where the satellite is in the earth's shadow,  

DLR